Location: Ballingbuur
(53.0000°N, 5.7667°E)
Time: 06:35:35
(UTC+00:00)

Cosmos 990 Rocket - Pass Details

Date: 29 November 2020
Orbit: 747 x 768 km, 74.0° (Epoch: 23 January)

Event Time Altitude Azimuth Distance (km) Brightness Sun altitude
Rises 05:29:37 0° 213° (SSW) 3,221 7.0 -16.4°
Reaches altitude 10° 05:32:00 10° 216° (SW) 2,301 6.3 -16.1°
Maximum altitude 05:37:12 66° 299° (WNW) 840 3.9 -15.3°
Drops below altitude 10° 05:42:27 10° 22° (NNE) 2,322 6.6 -14.6°
Sets 05:44:52 0° 26° (NNE) 3,252 7.4 -14.2°
